Mexico City Airport, Mexico

2:15 PM CDT on May 29, 2017 (GMT -0500)
Lic Benito Juarez International

Weather History for MMMX - July, 2011

Change the Weather History Date:

Sunday, July 17, 2011

  Actual Average Record
Temperature  
Mean Temperature 64 °F -  
Max Temperature 71 °F 72 °F 78 °F (2000)
Min Temperature 57 °F 53 °F 51 °F (2000)
Degree Days  
Heating Degree Days 1    
Growing Degree Days 14 (Base 50)    
Moisture  
Dew Point 52 °F    
Average Humidity 70    
Maximum Humidity 88    
Minimum Humidity 49    
Precipitation  
Precipitation 0.00 in - - ()
Sea Level Pressure  
Sea Level Pressure 30.12 in    
Wind  
Wind Speed 6 mph ()    
Max Wind Speed 20 mph    
Max Gust Speed -    
Visibility 10.3 miles    
Events Rain    
Averages and records for this station are not official NWS values.
T = Trace of Precipitation, MM = Missing Value Source: Averaged Metar Reports

Daily Weather History Graph

Daily Weather History Graph

Search for Another Location

Airport or City:

Trip Planner

Search our weather history database for the weather conditions in past years. The results will help you decide how hot, cold, wet, or windy it might be!

Date:

Astronomy

Jul. 17, 2011 Rise Set
Actual Time 7:07 AM CDT 8:17 PM CDT
Civil Twilight 6:43 AM CDT 8:41 PM CDT
Nautical Twilight 6:14 AM CDT 9:10 PM CDT
Astronomical Twilight 5:45 AM CDT 9:39 PM CDT
Moon 10:02 PM CDT (7/17) 9:14 AM CDT (7/17)
Length of Visible Light 13h 58m
Length of Day
13h 10m
Waning Gibbous, 94% of the Moon is Illuminated
Jul 17
Waning Gibbous
Jul 23
Last Quarter
Jul 30
New
Aug 6
First Quarter
Aug 13
Full

Hourly Weather History & Observations

Time (CDT) Temp. Dew Point Humidity Pressure Visibility Wind Dir Wind Speed Gust Speed Precip Events Conditions
12:47 AM 59.0 °F 51.8 °F 77% 29.76 in 12.0 mi North 6.9 mph - N/A   Mostly Cloudy
1:47 AM 59.0 °F 51.8 °F 77% 30.22 in 12.0 mi North 6.9 mph - N/A   Mostly Cloudy
2:49 AM 59.0 °F 51.8 °F 77% 30.21 in 12.0 mi NNW 6.9 mph - N/A   Mostly Cloudy
3:47 AM 59.0 °F 50.0 °F 72% 29.75 in 15.0 mi NNW 5.8 mph - N/A   Mostly Cloudy
4:47 AM 57.2 °F 50.0 °F 77% 30.21 in 15.0 mi NNW 5.8 mph - N/A   Mostly Cloudy
5:49 AM 59.0 °F 50.0 °F 72% 30.17 in 15.0 mi NW 5.8 mph - N/A   Mostly Cloudy
6:55 AM 59.0 °F 50.0 °F 72% 29.73 in 15.0 mi NW 6.9 mph - N/A   Overcast
7:24 AM 59.0 °F 50.0 °F 72% 30.21 in 10.0 mi NNW 5.8 mph - N/A   Overcast
7:52 AM 59.0 °F 50.0 °F 72% 30.22 in 10.0 mi NNW 4.6 mph - N/A   Overcast
8:26 AM 59.0 °F 50.0 °F 72% 30.24 in 10.0 mi North 6.9 mph - N/A   Overcast
8:49 AM 59.0 °F 50.0 °F 72% 30.24 in 10.0 mi NW 5.8 mph - N/A   Overcast
9:20 AM 59.0 °F 50.0 °F 72% 30.25 in 10.0 mi North 5.8 mph - N/A   Overcast
9:46 AM 60.8 °F 51.8 °F 72% 29.83 in 10.0 mi North 9.2 mph - N/A   Overcast
10:20 AM 60.8 °F 51.8 °F 72% 30.26 in 10.0 mi NNW 8.1 mph - N/A   Overcast
10:46 AM 62.6 °F 51.8 °F 68% 30.27 in 10.0 mi North 5.8 mph - N/A   Overcast
11:44 AM 64.4 °F 51.8 °F 64% 30.27 in 10.0 mi NNW 4.6 mph - N/A   Overcast
12:48 PM 66.2 °F 51.8 °F 60% 29.80 in 8.0 mi NW 5.8 mph - N/A   Overcast
1:46 PM 68.0 °F 51.8 °F 56% 30.26 in 8.0 mi SSW 3.5 mph - N/A   Overcast
2:46 PM 68.0 °F 53.6 °F 60% 30.27 in 8.0 mi Calm Calm - N/A   Overcast
3:50 PM 69.8 °F 51.8 °F 53% 29.74 in 7.0 mi West 5.8 mph - N/A   Overcast
4:45 PM 71.6 °F 51.8 °F 50% 30.21 in 7.0 mi SSW 4.6 mph - N/A   Overcast
5:49 PM 69.8 °F 50.0 °F 49% 30.20 in 7.0 mi South 4.6 mph - N/A   Overcast
6:46 PM 69.8 °F 51.8 °F 53% 29.70 in 8.0 mi Calm Calm - N/A   Overcast
7:44 PM 66.2 °F 55.4 °F 68% 30.22 in 8.0 mi NNE 19.6 mph - N/A   Mostly Cloudy
7:47 PM 66.2 °F 55.4 °F 68% 30.22 in 8.0 mi North 18.4 mph - N/A   Mostly Cloudy
8:52 PM 64.4 °F 55.4 °F 73% 30.24 in 12.0 mi North 16.1 mph - N/A   Mostly Cloudy
9:16 PM 62.6 °F 57.2 °F 82% 30.27 in 5.0 mi NNE 17.3 mph - N/A Rain Light Rain
9:50 PM 60.8 °F 57.2 °F 88% 29.80 in 8.0 mi North 6.9 mph - N/A Rain Light Rain
10:15 PM 60.8 °F 57.2 °F 88% 30.28 in 12.0 mi North 4.6 mph - N/A   Mostly Cloudy
10:51 PM 60.8 °F 57.2 °F 88% 30.28 in 14.0 mi NNE 11.5 mph - N/A   Mostly Cloudy
11:47 PM 60.8 °F 57.2 °F 88% 30.29 in 14.0 mi NW 4.6 mph - N/A   Mostly Cloudy